This is the latest recevied weather packets stored in our database for station/object LZ1NAG-10. If no packets are shown the sender has not sent any weather packets the latest 10 day(s).
| Time | Temp. | Humidity | Pressure | Rain* | Wind** | Luminosity | Snow |
|---|---|---|---|---|---|---|---|
| 1778034804 | 6.67° C | 54% | 1020.2 hPa | - | - | - | - |
| 1778033904 | 6.67° C | 54% | 1020.1 hPa | - | - | - | - |
| 1778033004 | 6.67° C | 54% | 1020.1 hPa | - | - | - | - |
| 1778032103 | 7.22° C | 54% | 1020.1 hPa | - | - | - | - |
| 1778031202 | 7.22° C | 54% | 1020 hPa | - | - | - | - |
| 1778030302 | 7.78° C | 54% | 1019.8 hPa | - | - | - | - |
| 1778029401 | 7.78° C | 54% | 1019.9 hPa | - | - | - | - |
| 1778028501 | 7.78° C | 54% | 1020 hPa | - | - | - | - |
| 1778027601 | 8.33° C | 54% | 1019.7 hPa | - | - | - | - |
| 1778026701 | 10° C | 53% | 1019.7 hPa | - | - | - | - |
| 1778025801 | 9.44° C | 54% | 1019.9 hPa | - | - | - | - |
| 1778024901 | 9.44° C | 54% | 1019.9 hPa | - | - | - | - |
| 1778024000 | 8.89° C | 54% | 1019.9 hPa | - | - | - | - |
| 1778023100 | 8.33° C | 54% | 1019.9 hPa | - | - | - | - |
| 1778022200 | 8.33° C | 54% | 1019.7 hPa | - | - | - | - |
| 1778021300 | 8.89° C | 54% | 1019.7 hPa | - | - | - | - |
| 1778020400 | 9.44° C | 54% | 1019.7 hPa | - | - | - | - |
| 1778019500 | 10° C | 54% | 1019.8 hPa | - | - | - | - |
| 1778018599 | 10° C | 54% | 1019.8 hPa | - | - | - | - |
| 1778017699 | 10.56° C | 53% | 1019.8 hPa | - | - | - | - |
| 1778016799 | 11.11° C | 53% | 1019.7 hPa | - | - | - | - |
| 1778015899 | 11.67° C | 53% | 1019.5 hPa | - | - | - | - |
| 1778014999 | 12.22° C | 53% | 1019.6 hPa | - | - | - | - |
| 1778014099 | 11.67° C | 54% | 1019.7 hPa | - | - | - | - |
| 1778013199 | 11.67° C | 54% | 1019.5 hPa | - | - | - | - |
* Rain since midnight (hover to see other rain measurements)
** Current wind speed in m/s (hover to see current wind gust speed)